| time (UTC) | temp F | wind direction | speed MPH | gust MPH | rain 1hr in | rain 24hr in | rain mn in | humidity % | barometer mb |
| 20260507060032 | 52 | 109 | 0.0 | 0.0 | 0.13 | 0.24 | 0.24 | 87 | 993.4 |
| 20260507054518 | 52 | 109 | 0.0 | 0.0 | 0.11 | 0.22 | 0.22 | 87 | 993.2 |
| 20260507053015 | 52 | 109 | 0.0 | 0.0 | 0.07 | 0.18 | 0.18 | 87 | 993.0 |
| 20260507051514 | 52 | 109 | 0.0 | 0.0 | 0.04 | 0.15 | 0.15 | 87 | 992.9 |
| 20260507050034 | 52 | 109 | 0.0 | 0.0 | 0.01 | 0.12 | 0.12 | 87 | 992.7 |
| 20260507044518 | 52 | 109 | 0.0 | 0.0 | 0.01 | 0.11 | 0.11 | 87 | 992.7 |
| 20260507043008 | 52 | 109 | 0.0 | 2.0 | 0.02 | 0.11 | 0.11 | 87 | 992.3 |
| 20260507041508 | 52 | 113 | 0.0 | 1.0 | 0.02 | 0.11 | 0.11 | 87 | 992.2 |
| 20260507040005 | 52 | 113 | 0.0 | 1.0 | 0.02 | 0.11 | 0.11 | 86 | 992.1 |
| 20260507034506 | 53 | 114 | 0.0 | 0.0 | 0.02 | 0.10 | 0.10 | 86 | 992.1 |
| 20260507033003 | 53 | 114 | 0.0 | 0.0 | 0.02 | 0.09 | 0.09 | 86 | 992.1 |
| 20260507031505 | 53 | 113 | 0.0 | 2.0 | 0.02 | 0.09 | 0.09 | 86 | 992.1 |
| 20260507024700 | 53 | 140 | 0.0 | 0.0 | 0.00 | 0.08 | 0.08 | 86 | 991.9 |
| 20260507023058 | 53 | 140 | 0.0 | 0.0 | 0.00 | 0.08 | 0.08 | 86 | 991.9 |
| 20260507021606 | 54 | 140 | 0.0 | 0.0 | 0.00 | 0.08 | 0.08 | 86 | 991.8 |
| 20260507020058 | 54 | 140 | 0.0 | 0.0 | 0.00 | 0.08 | 0.08 | 85 | 991.7 |
| 20260507014558 | 54 | 140 | 0.0 | 0.0 | 0.00 | 0.08 | 0.08 | 85 | 991.7 |
| 20260507013053 | 53 | 140 | 0.0 | 0.0 | 0.00 | 0.08 | 0.08 | 84 | 991.5 |
| 20260507011556 | 53 | 140 | 0.0 | 0.0 | 0.00 | 0.08 | 0.08 | 84 | 991.4 |
| 20260507010052 | 53 | 140 | 0.0 | 0.0 | 0.00 | 0.08 | 0.08 | 84 | 991.3 |
| 20260507004551 | 54 | 140 | 0.0 | 0.0 | 0.01 | 0.08 | 0.08 | 84 | 991.1 |
| 20260507003050 | 54 | 140 | 0.0 | 0.0 | 0.02 | 0.08 | 0.08 | 83 | 991.2 |
| 20260507001550 | 54 | 140 | 0.0 | 0.0 | 0.04 | 0.08 | 0.08 | 83 | 991.0 |
| 20260507000048 | 54 | 140 | 0.0 | 0.0 | 0.05 | 0.08 | 0.08 | 82 | 991.2 |
| 20260506234603 | 54 | 140 | 0.0 | 1.0 | 0.06 | 0.11 | 0.07 | 82 | 991.1 |
| 20260506233045 | 55 | 140 | 0.0 | 2.0 | 0.06 | 0.10 | 0.06 | 82 | 991.1 |
| 20260506231543 | 55 | 113 | 0.0 | 1.0 | 0.04 | 0.08 | 0.04 | 81 | 990.9 |
| 20260506230041 | 56 | 113 | 0.0 | 0.0 | 0.03 | 0.07 | 0.03 | 81 | 991.1 |
| 20260506224544 | 56 | 173 | 0.0 | 3.0 | 0.01 | 0.14 | 0.01 | 80 | 991.3 |
| 20260506223040 | 56 | 106 | 0.0 | 2.0 | 0.00 | 0.13 | 0.00 | 78 | 991.4 |
| 20260506221534 | 57 | 115 | 0.0 | 0.0 | 0.00 | 0.13 | 0.00 | 79 | 991.5 |
| 20260506220036 | 57 | 115 | 0.0 | 0.0 | 0.00 | 0.13 | 0.00 | 78 | 990.7 |
| 20260506214532 | 58 | 115 | 0.0 | 0.0 | 0.00 | 0.51 | 0.13 | 78 | 990.7 |
| 20260506213032 | 58 | 115 | 0.0 | 0.0 | 0.00 | 0.51 | 0.13 | 78 | 990.6 |
| 20260506211529 | 58 | 115 | 0.0 | 0.0 | 0.00 | 0.51 | 0.13 | 77 | 990.3 |
| 20260506210034 | 58 | 115 | 0.0 | 0.0 | 0.00 | 0.51 | 0.13 | 76 | 990.4 |
| 20260506204544 | 59 | 115 | 0.0 | 0.0 | 0.00 | 0.80 | 0.13 | 76 | 989.9 |
| 20260506203029 | 59 | 115 | 0.0 | 0.0 | 0.00 | 0.80 | 0.13 | 76 | 989.9 |
| 20260506201530 | 60 | 115 | 0.0 | 0.0 | 0.00 | 0.80 | 0.13 | 75 | 990.0 |
| 20260506200024 | 60 | 115 | 0.0 | 0.0 | 0.00 | 0.80 | 0.13 | 74 | 990.1 |
| 20260506194524 | 61 | 115 | 0.0 | 0.0 | 0.00 | 0.83 | 0.13 | 73 | 990.1 |
| 20260506193023 | 62 | 115 | 0.0 | 0.0 | 0.00 | 0.83 | 0.13 | 72 | 990.0 |
| 20260506191524 | 62 | 115 | 0.0 | 0.0 | 0.00 | 0.83 | 0.13 | 72 | 989.7 |
| 20260506190022 | 63 | 115 | 0.0 | 0.0 | 0.00 | 0.83 | 0.13 | 71 | 989.3 |
| 20260506184521 | 63 | 115 | 0.0 | 0.0 | 0.00 | 0.83 | 0.13 | 70 | 989.3 |
| 20260506183021 | 64 | 115 | 0.0 | 3.0 | 0.00 | 0.83 | 0.13 | 69 | 988.9 |
| 20260506181526 | 65 | 129 | 0.0 | 0.0 | 0.00 | 0.83 | 0.13 | 68 | 988.8 |
| 20260506180020 | 65 | 130 | 0.0 | 2.0 | 0.00 | 0.83 | 0.13 | 67 | 988.8 |
| 20260506174519 | 67 | 49 | 0.0 | 1.0 | 0.00 | 0.83 | 0.13 | 66 | 988.7 |
| 20260506173019 | 67 | 169 | 0.0 | 1.0 | 0.00 | 0.83 | 0.13 | 66 | 988.4 |
| 20260506171532 | 68 | 169 | 0.0 | 0.0 | 0.00 | 0.83 | 0.13 | 64 | 988.3 |
| 20260506170018 | 68 | 169 | 0.0 | 0.0 | 0.00 | 0.83 | 0.13 | 64 | 987.9 |
| 20260506164520 | 69 | 169 | 0.0 | 1.0 | 0.00 | 0.83 | 0.13 | 63 | 988.1 |
| 20260506163018 | 69 | 169 | 0.0 | 1.0 | 0.00 | 0.83 | 0.13 | 63 | 987.9 |
| 20260506161518 | 69 | 193 | 0.0 | 1.0 | 0.00 | 0.83 | 0.13 | 62 | 988.2 |
| 20260506160025 | 68 | 229 | 0.0 | 3.0 | 0.00 | 0.83 | 0.13 | 65 | 988.5 |
| 20260506154514 | 68 | 108 | 0.0 | 0.0 | 0.00 | 0.83 | 0.13 | 66 | 988.6 |
| 20260506153114 | 68 | 108 | 0.0 | 0.0 | 0.00 | 0.83 | 0.13 | 65 | 988.7 |
| 20260506151520 | 68 | 159 | 0.0 | 2.0 | 0.00 | 0.83 | 0.13 | 64 | 988.7 |
| 20260506150024 | 69 | 105 | 0.0 | 2.0 | 0.00 | 0.83 | 0.13 | 62 | 988.7 |
| 20260506144513 | 69 | 86 | 0.0 | 1.0 | 0.00 | 0.83 | 0.13 | 59 | 988.7 |
| 20260506143033 | 70 | 86 | 0.0 | 1.0 | 0.00 | 0.83 | 0.13 | 57 | 988.7 |
| 20260506141511 | 71 | 86 | 0.0 | 2.0 | 0.00 | 0.83 | 0.13 | 54 | 988.7 |
| 20260506140013 | 71 | 86 | 0.0 | 1.0 | 0.00 | 0.83 | 0.13 | 58 | 988.8 |
| 20260506134509 | 71 | 86 | 0.0 | 2.0 | 0.00 | 0.83 | 0.13 | 57 | 988.9 |
| 20260506133011 | 71 | 136 | 0.0 | 4.0 | 0.00 | 0.83 | 0.13 | 56 | 989.0 |
| 20260506131514 | 70 | 225 | 1.0 | 3.0 | 0.00 | 0.83 | 0.13 | 57 | 989.0 |
| 20260506130008 | 70 | 330 | 0.0 | 8.0 | 0.00 | 0.83 | 0.13 | 58 | 989.3 |
| 20260506124507 | 70 | 309 | 0.0 | 2.0 | 0.00 | 0.83 | 0.13 | 56 | 989.4 |
| 20260506123007 | 71 | 318 | 0.0 | 4.0 | 0.00 | 0.83 | 0.13 | 56 | 989.4 |
| 20260506121507 | 71 | 317 | 0.0 | 2.0 | 0.00 | 0.83 | 0.13 | 56 | 989.4 |
| 20260506120006 | 72 | 336 | 1.0 | 6.0 | 0.00 | 0.83 | 0.13 | 51 | 989.4 |
| 20260506114503 | 71 | 11 | 0.0 | 5.0 | 0.00 | 0.83 | 0.13 | 54 | 989.2 |
| 20260506113002 | 70 | 308 | 2.0 | 5.0 | 0.00 | 0.83 | 0.13 | 57 | 989.4 |
| 20260506111502 | 70 | 328 | 0.0 | 4.0 | 0.00 | 0.83 | 0.13 | 56 | 989.4 |
| 20260506110002 | 71 | 316 | 2.0 | 10.0 | 0.00 | 0.83 | 0.13 | 54 | 989.5 |
| 20260506104617 | 71 | 311 | 1.0 | 6.0 | 0.00 | 0.83 | 0.13 | 55 | 989.6 |
| 20260506103057 | 71 | 310 | 1.0 | 5.0 | 0.00 | 0.83 | 0.13 | 62 | 989.5 |
| 20260506101602 | 70 | 341 | 0.0 | 2.0 | 0.00 | 0.83 | 0.13 | 60 | 989.4 |
| 20260506100053 | 69 | 327 | 1.0 | 5.0 | 0.00 | 0.83 | 0.13 | 60 | 989.5 |
| 20260506094556 | 68 | 311 | 1.0 | 8.0 | 0.00 | 0.83 | 0.13 | 66 | 989.4 |
| 20260506093053 | 66 | 355 | 1.0 | 6.0 | 0.00 | 0.83 | 0.13 | 66 | 989.3 |
| 20260506091546 | 66 | 15 | 2.0 | 6.0 | 0.00 | 0.83 | 0.13 | 66 | 989.2 |
| 20260506090045 | 66 | 314 | 2.0 | 6.0 | 0.00 | 0.83 | 0.13 | 67 | 989.1 |
| 20260506084545 | 65 | 339 | 0.0 | 10.0 | 0.00 | 0.83 | 0.13 | 72 | 988.9 |
| 20260506083041 | 65 | 229 | 0.0 | 9.0 | 0.00 | 0.83 | 0.13 | 72 | 988.9 |
| 20260506081539 | 65 | 342 | 1.0 | 8.0 | 0.00 | 0.83 | 0.13 | 71 | 988.8 |
| 20260506073037 | 63 | 333 | 0.0 | 5.0 | 0.00 | 0.83 | 0.13 | 79 | 988.4 |
| 20260506071530 | 63 | 335 | 2.0 | 8.0 | 0.00 | 0.83 | 0.13 | 80 | 988.7 |
| 20260506061515 | 58 | 333 | 0.0 | 5.0 | 0.00 | 0.84 | 0.13 | 91 | 988.7 |